Location: Unspecified
(39.0670°S, 0.0000°E)
Time: 15:46:38
(UTC+00:00)

ISS - Pass Details

Date: 23 June 2019
Orbit: 409 x 418 km, 51.6° (Epoch: 22 July)

Event Time Altitude Azimuth Distance (km) Brightness Sun altitude
Rises 18:33:58 0° 304° (WNW) 2,372 1.3 -20.4°
Reaches altitude 10° 18:36:04 10° 301° (WNW) 1,514 0.1 -20.8°
Enters shadow 18:39:20 67° 235° (SW) 468 -3.5 -21.4°
